This demonstration page uses our WeatherBlox Daily Observations layout. Learn more.

Left ArrowRight Arrow

Hourly Observations for September 18, 2021

Temp ( °F °C ) Dew Point ( °F °C ) Humidity (%) Winds ( mph kmh ) Pressure ( in mb ) Visibility ( mi km ) Precip ( " mm )
12:51 am 00:51 Clear 75 23.9 50 10 41 41 NNW 7 11 29.88 1012 10 16 N/A
1:51 am 01:51 Clear 75 23.9 51 10.6 43 43 WNW 3 6 29.88 1012 10 16 N/A
2:51 am 02:51 Clear 71 21.7 51 10.6 49 49 N N/A 29.89 1012 10 16 N/A
3:51 am 03:51 Clear 68 20 51 10.6 55 55 ESE 6 9 29.89 1012 10 16 N/A
4:51 am 04:51 Clear 67 19.4 51 10.6 57 57 NE 5 7 29.90 1013 10 16 N/A
5:51 am 05:51 Clear 66 18.9 51 10.6 59 59 N N/A 29.91 1013 10 16 N/A
6:51 am 06:51 Sunny 66 18.9 52 11.1 61 61 N N/A 29.95 1014 10 16 N/A
7:51 am 07:51 Sunny 76 24.4 51 10.6 42 42 E 3 6 29.94 1014 10 16 N/A
8:51 am 08:51 Sunny 80 26.7 51 10.6 37 37 SSE 8 13 29.96 1015 10 16 N/A
9:51 am 09:51 Partly Cloudy 83 28.3 51 10.6 33 33 N N/A 29.96 1015 10 16 N/A
10:51 am 10:51 Sunny 88 31.1 52 11.1 29 29 N N/A 29.93 1014 10 16 N/A
11:51 am 11:51 Mostly Sunny 91 32.8 51 10.6 26 26 SW 5 7 29.91 1013 10 16 N/A
12:51 pm 12:51 Mostly Cloudy 94 34.4 51 10.6 23 23 WNW 6 9 29.88 1012 10 16 N/A
1:51 pm 13:51 Sunny 96 35.6 51 10.6 22 22 ESE 7 11 29.84 1011 10 16 N/A
2:51 pm 14:51 Sunny 97 36.1 51 10.6 21 21 SSE 8 13 29.82 1010 10 16 N/A
3:51 pm 15:51 Sunny 96 35.6 52 11.1 23 23 VRB 6 9 29.80 1009 10 16 N/A
4:51 pm 16:51 Mostly Sunny 94 34.4 52 11.1 24 24 W 15 24 29.80 1009 10 16 N/A
5:51 pm 17:51 Mostly Cloudy with Light Rain 86 30 57 13.9 37 37 SW 23 37 29.85 1011 10 16 0.00 0.00
6:51 pm 18:51 Mostly Clear 85 29.4 57 13.9 39 39 NE 12 19 29.83 1010 10 16 0.00 0.00
7:51 pm 19:51 Partly Cloudy 82 27.8 58 14.4 44 44 WSW 9 15 29.85 1011 10 16 N/A
8:51 pm 20:51 Clear 82 27.8 58 14.4 44 44 NE 10 17 29.86 1011 10 16 N/A
9:51 pm 21:51 Clear 82 27.8 57 13.9 42 42 NW 6 9 29.84 1011 10 16 N/A
10:51 pm 22:51 Clear 78 25.6 59 15 52 52 WNW 8 13 29.85 1011 10 16 N/A
11:51 pm 23:51 Clear 77 25 60 15.6 56 56 WNW 9 15 29.84 1011 10 16 N/A

Powered by AerisWeather